| time (UTC) | temp F | wind direction | speed MPH | gust MPH | rain 1hr in | rain 24hr in | rain mn in | humidity % | barometer mb |
| 20260506091357 | 58 | 113 | 1.0 | 2.0 | 0.19 | 0.41 | 0.41 | 98 | 1005.9 |
| 20260506090853 | 58 | 134 | 1.0 | 1.0 | 0.17 | 0.40 | 0.40 | 98 | 1005.8 |
| 20260506090351 | 58 | 135 | 1.0 | 1.0 | 0.05 | 0.38 | 0.38 | 98 | 1005.9 |
| 20260506085848 | 58 | 136 | 0.0 | 0.0 | 0.07 | 0.37 | 0.37 | 98 | 1006.0 |
| 20260506085344 | 58 | 135 | 0.0 | 0.0 | 0.07 | 0.37 | 0.37 | 98 | 1005.9 |
| 20260506084841 | 58 | 135 | 0.0 | 0.0 | 0.05 | 0.36 | 0.36 | 98 | 1005.7 |
| 20260506084338 | 58 | 136 | 0.0 | 1.0 | 0.05 | 0.36 | 0.36 | 98 | 1005.7 |
| 20260506083834 | 58 | 107 | 1.0 | 2.0 | 0.07 | 0.35 | 0.35 | 98 | 1005.4 |
| 20260506083332 | 58 | 106 | 2.0 | 2.0 | 0.14 | 0.35 | 0.35 | 98 | 1005.6 |
| 20260506082829 | 58 | 102 | 1.0 | 2.0 | 0.12 | 0.34 | 0.34 | 98 | 1005.9 |
| 20260506082325 | 58 | 91 | 2.0 | 2.0 | 0.12 | 0.33 | 0.33 | 97 | 1005.7 |
| 20260506081822 | 58 | 88 | 1.0 | 1.0 | 0.12 | 0.32 | 0.32 | 97 | 1005.9 |
| 20260506081320 | 58 | 88 | 0.0 | 0.0 | 0.17 | 0.31 | 0.31 | 97 | 1005.9 |
| 20260506080817 | 58 | 87 | 1.0 | 1.0 | 0.24 | 0.30 | 0.30 | 96 | 1006.2 |
| 20260506080313 | 58 | 88 | 0.0 | 1.0 | 0.19 | 0.28 | 0.28 | 96 | 1006.0 |
| 20260506073258 | 59 | 341 | 0.0 | 2.0 | 0.28 | 0.18 | 0.18 | 92 | 1006.6 |
| 20260506072754 | 59 | 336 | 2.0 | 2.0 | 0.28 | 0.16 | 0.16 | 91 | 1006.5 |
| 20260506072252 | 59 | 315 | 2.0 | 4.0 | 0.19 | 0.13 | 0.13 | 91 | 1006.6 |
| 20260506071749 | 59 | 267 | 2.0 | 2.0 | 0.14 | 0.11 | 0.11 | 91 | 1006.5 |
| 20260506071247 | 59 | 95 | 1.0 | 2.0 | 0.07 | 0.10 | 0.10 | 90 | 1006.0 |
| 20260506070744 | 59 | 132 | 2.0 | 2.0 | 0.00 | 0.09 | 0.09 | 90 | 1006.0 |
| 20260506070241 | 59 | 102 | 1.0 | 2.0 | 0.00 | 0.09 | 0.09 | 90 | 1005.9 |
| 20260506062218 | 62 | 98 | 4.0 | 6.0 | 0.00 | 0.05 | 0.05 | 83 | 1006.4 |
| 20260506061714 | 60 | 178 | 2.0 | 4.0 | 0.00 | 0.05 | 0.05 | 83 | 1006.6 |
| 20260506061211 | 60 | 132 | 3.0 | 6.0 | 0.05 | 0.05 | 0.05 | 87 | 1006.6 |
| 20260506060710 | 59 | 44 | 0.0 | 3.0 | 0.05 | 0.05 | 0.05 | 91 | 1006.4 |
| 20260506060206 | 59 | 87 | 2.0 | 3.0 | 0.00 | 0.04 | 0.04 | 94 | 1006.6 |
| 20260506051138 | 59 | 90 | 1.0 | 1.0 | 0.00 | 0.03 | 0.03 | 93 | 1006.8 |
| 20260506050637 | 59 | 90 | 1.0 | 2.0 | 0.00 | 0.03 | 0.03 | 93 | 1007.0 |
| 20260506050134 | 59 | 139 | 0.0 | 0.0 | 0.05 | 0.03 | 0.03 | 91 | 1007.2 |
| 20260506045126 | 60 | 100 | 1.0 | 2.0 | 0.12 | 0.03 | 0.03 | 89 | 1007.1 |
| 20260506044625 | 60 | 86 | 2.0 | 2.0 | 0.07 | 0.02 | 0.02 | 89 | 1007.1 |
| 20260506044121 | 59 | 76 | 2.0 | 2.0 | 0.00 | 0.01 | 0.01 | 92 | 1007.2 |
| 20260506043619 | 59 | 140 | 0.0 | 1.0 | 0.00 | 0.01 | 0.01 | 93 | 1007.3 |
| 20260506043117 | 59 | 140 | 0.0 | 1.0 | 0.00 | 0.01 | 0.01 | 93 | 1007.7 |
| 20260506042615 | 59 | 141 | 0.0 | 0.0 | 0.00 | 0.01 | 0.01 | 92 | 1007.3 |
| 20260506042113 | 59 | 141 | 1.0 | 1.0 | 0.00 | 0.01 | 0.01 | 92 | 1007.0 |
| 20260506041612 | 59 | 144 | 1.0 | 1.0 | 0.00 | 0.01 | 0.01 | 91 | 1007.0 |
| 20260506041108 | 60 | 76 | 0.0 | 1.0 | 0.05 | 0.01 | 0.01 | 89 | 1006.8 |
| 20260506040606 | 60 | 75 | 0.0 | 1.0 | 0.05 | 0.01 | 0.01 | 87 | 1007.1 |
| 20260506035559 | 60 | 136 | 1.0 | 1.0 | 0.00 | 0.00 | 0.00 | 87 | 1007.4 |
| 20260506035055 | 60 | 137 | 0.0 | 1.0 | 0.00 | 0.00 | 0.00 | 88 | 1007.5 |
| 20260506034553 | 60 | 135 | 1.0 | 2.0 | 0.00 | 0.00 | 0.00 | 86 | 1007.3 |
| 20260506034050 | 60 | 137 | 0.0 | 1.0 | 0.00 | 0.00 | 0.00 | 88 | 1007.4 |
| 20260506033547 | 60 | 137 | 0.0 | 0.0 | 0.00 | 0.00 | 0.00 | 87 | 1007.5 |
| 20260506033044 | 61 | 137 | 0.0 | 0.0 | 0.00 | 0.00 | 0.00 | 85 | 1007.1 |
| 20260506032541 | 61 | 137 | 0.0 | 0.0 | 0.00 | 0.00 | 0.00 | 83 | 1007.4 |
| 20260506032038 | 61 | 138 | 0.0 | 0.0 | 0.00 | 0.00 | 0.00 | 84 | 1007.5 |
| 20260506031536 | 61 | 139 | 0.0 | 2.0 | 0.00 | 0.00 | 0.00 | 84 | 1007.5 |
| 20260506031032 | 60 | 128 | 2.0 | 2.0 | 0.00 | 0.00 | 0.00 | 83 | 1007.5 |
| 20260506030531 | 60 | 97 | 2.0 | 3.0 | 0.00 | 0.00 | 0.00 | 86 | 1007.5 |
| 20260506030028 | 61 | 199 | 1.0 | 3.0 | 0.00 | 0.00 | 0.00 | 87 | 1007.6 |
| 20260506025525 | 61 | 118 | 1.0 | 2.0 | 0.00 | 0.00 | 0.00 | 82 | 1007.7 |
| 20260506025020 | 62 | 95 | 3.0 | 3.0 | 0.00 | 0.00 | 0.00 | 77 | 1007.8 |
| 20260506024518 | 62 | 77 | 1.0 | 2.0 | 0.00 | 0.00 | 0.00 | 77 | 1008.2 |
| 20260506024014 | 62 | 76 | 0.0 | 0.0 | 0.00 | 0.00 | 0.00 | 77 | 1008.2 |
| 20260506023510 | 63 | 76 | 0.0 | 0.0 | 0.00 | 0.00 | 0.00 | 76 | 1008.3 |
| 20260506023008 | 64 | 77 | 0.0 | 1.0 | 0.00 | 0.00 | 0.00 | 74 | 1007.9 |
| 20260506022505 | 65 | 77 | 0.0 | 1.0 | 0.00 | 0.00 | 0.00 | 71 | 1007.8 |
| 20260506022002 | 65 | 76 | 1.0 | 2.0 | 0.00 | 0.00 | 0.00 | 64 | 1007.8 |
| 20260506021500 | 65 | 86 | 1.0 | 2.0 | 0.00 | 0.00 | 0.00 | 64 | 1007.9 |
| 20260506020957 | 65 | 20 | 1.0 | 2.0 | 0.00 | 0.00 | 0.00 | 62 | 1008.2 |
| 20260506020454 | 66 | 2 | 1.0 | 1.0 | 0.00 | 0.00 | 0.00 | 67 | 1008.3 |
| 20260506015951 | 67 | 96 | 0.0 | 0.0 | 0.00 | 0.00 | 0.00 | 63 | 1007.8 |
| 20260506015449 | 68 | 96 | 0.0 | 0.0 | 0.00 | 0.00 | 0.00 | 54 | 1007.9 |
| 20260506014945 | 68 | 96 | 1.0 | 2.0 | 0.00 | 0.00 | 0.00 | 54 | 1007.7 |
| 20260506014442 | 68 | 93 | 1.0 | 2.0 | 0.00 | 0.00 | 0.00 | 54 | 1007.7 |
| 20260506013939 | 68 | 85 | 2.0 | 2.0 | 0.00 | 0.00 | 0.00 | 53 | 1007.6 |
| 20260506013437 | 68 | 90 | 2.0 | 2.0 | 0.00 | 0.00 | 0.00 | 54 | 1007.5 |
| 20260506012933 | 68 | 95 | 1.0 | 2.0 | 0.00 | 0.00 | 0.00 | 54 | 1007.6 |
| 20260506012430 | 69 | 75 | 3.0 | 3.0 | 0.00 | 0.00 | 0.00 | 54 | 1007.6 |
| 20260506011926 | 69 | 135 | 1.0 | 1.0 | 0.00 | 0.00 | 0.00 | 52 | 1007.9 |
| 20260506011424 | 69 | 94 | 2.0 | 2.0 | 0.00 | 0.00 | 0.00 | 52 | 1007.5 |
| 20260506010920 | 69 | 91 | 2.0 | 3.0 | 0.00 | 0.00 | 0.00 | 52 | 1007.6 |
| 20260506010420 | 69 | 106 | 3.0 | 3.0 | 0.00 | 0.00 | 0.00 | 51 | 1007.9 |
| 20260506005915 | 69 | 102 | 2.0 | 3.0 | 0.00 | 0.00 | 0.00 | 51 | 1007.9 |
| 20260506005414 | 69 | 96 | 2.0 | 2.0 | 0.00 | 0.00 | 0.00 | 51 | 1008.0 |
| 20260506004908 | 70 | 101 | 1.0 | 3.0 | 0.00 | 0.00 | 0.00 | 51 | 1007.8 |
| 20260506004407 | 70 | 89 | 1.0 | 3.0 | 0.00 | 0.00 | 0.00 | 50 | 1007.9 |
| 20260506003902 | 70 | 106 | 2.0 | 3.0 | 0.00 | 0.00 | 0.00 | 50 | 1007.7 |
| 20260506003358 | 70 | 106 | 2.0 | 4.0 | 0.00 | 0.00 | 0.00 | 52 | 1007.9 |
| 20260506002855 | 70 | 103 | 1.0 | 1.0 | 0.00 | 0.00 | 0.00 | 52 | 1008.1 |
| 20260506002351 | 71 | 83 | 2.0 | 2.0 | 0.00 | 0.00 | 0.00 | 49 | 1008.0 |
| 20260506001847 | 71 | 201 | 2.0 | 6.0 | 0.00 | 0.00 | 0.00 | 48 | 1008.0 |
| 20260506001344 | 71 | 208 | 2.0 | 3.0 | 0.00 | 0.00 | 0.00 | 49 | 1008.1 |
| 20260506000841 | 71 | 194 | 3.0 | 11.0 | 0.00 | 0.00 | 0.00 | 48 | 1008.3 |
| 20260506000340 | 71 | 146 | 2.0 | 7.0 | 0.00 | 0.00 | 0.00 | 50 | 1008.6 |
| 20260505235835 | 71 | 233 | 4.0 | 7.0 | 0.00 | 0.00 | 0.00 | 51 | 1008.5 |
| 20260505235333 | 71 | 243 | 2.0 | 4.0 | 0.00 | 0.00 | 0.00 | 52 | 1008.4 |
| 20260505234830 | 71 | 199 | 7.0 | 14.0 | 0.00 | 0.00 | 0.00 | 51 | 1008.5 |
| 20260505234328 | 71 | 92 | 3.0 | 4.0 | 0.00 | 0.00 | 0.00 | 55 | 1008.4 |
| 20260505233824 | 71 | 223 | 1.0 | 3.0 | 0.00 | 0.00 | 0.00 | 54 | 1008.3 |
| 20260505233322 | 71 | 82 | 2.0 | 4.0 | 0.00 | 0.00 | 0.00 | 53 | 1008.2 |
| 20260505232819 | 72 | 190 | 1.0 | 2.0 | 0.00 | 0.00 | 0.00 | 53 | 1008.0 |
| 20260505232317 | 72 | 118 | 2.0 | 3.0 | 0.00 | 0.00 | 0.00 | 52 | 1008.3 |
| 20260505231813 | 72 | 189 | 2.0 | 3.0 | 0.00 | 0.00 | 0.00 | 52 | 1008.1 |
| 20260505231312 | 72 | 56 | 1.0 | 2.0 | 0.00 | 0.00 | 0.00 | 52 | 1008.2 |
| 20260505230810 | 72 | 137 | 0.0 | 3.0 | 0.00 | 0.00 | 0.00 | 52 | 1008.3 |
| 20260505230306 | 72 | 226 | 1.0 | 4.0 | 0.00 | 0.00 | 0.00 | 51 | 1008.3 |
| 20260505225803 | 73 | 122 | 2.0 | 3.0 | 0.00 | 0.00 | 0.00 | 52 | 1008.3 |
| 20260505225300 | 73 | 258 | 1.0 | 4.0 | 0.00 | 0.00 | 0.00 | 50 | 1008.3 |
| 20260505224755 | 73 | 323 | 2.0 | 3.0 | 0.00 | 0.00 | 0.00 | 50 | 1008.2 |
| 20260505224253 | 73 | 269 | 4.0 | 6.0 | 0.00 | 0.00 | 0.00 | 49 | 1008.3 |
| 20260505223750 | 73 | 230 | 0.0 | 3.0 | 0.00 | 0.00 | 0.00 | 51 | 1008.3 |
| 20260505223247 | 73 | 193 | 3.0 | 6.0 | 0.00 | 0.00 | 0.00 | 49 | 1008.4 |
| 20260505222743 | 73 | 238 | 3.0 | 3.0 | 0.00 | 0.00 | 0.00 | 49 | 1008.4 |
| 20260505222239 | 73 | 207 | 1.0 | 3.0 | 0.00 | 0.00 | 0.00 | 50 | 1008.4 |
| 20260505221736 | 74 | 223 | 1.0 | 4.0 | 0.00 | 0.00 | 0.00 | 49 | 1008.5 |
| 20260505221233 | 74 | 222 | 4.0 | 6.0 | 0.00 | 0.00 | 0.00 | 50 | 1008.5 |
| 20260505220729 | 74 | 174 | 1.0 | 4.0 | 0.00 | 0.00 | 0.00 | 49 | 1008.5 |
| 20260505220227 | 74 | 227 | 3.0 | 8.0 | 0.00 | 0.00 | 0.00 | 48 | 1008.5 |
| 20260505215725 | 74 | 208 | 2.0 | 7.0 | 0.00 | 0.00 | 0.00 | 49 | 1008.5 |
| 20260505215223 | 74 | 218 | 3.0 | 6.0 | 0.00 | 0.00 | 0.00 | 47 | 1008.6 |
| 20260505214720 | 74 | 108 | 6.0 | 10.0 | 0.00 | 0.00 | 0.00 | 47 | 1008.7 |
| 20260505214218 | 74 | 187 | 3.0 | 7.0 | 0.00 | 0.00 | 0.00 | 47 | 1008.6 |
| 20260505213715 | 74 | 204 | 4.0 | 11.0 | 0.00 | 0.00 | 0.00 | 47 | 1008.5 |
| 20260505213212 | 74 | 187 | 9.0 | 11.0 | 0.00 | 0.00 | 0.00 | 46 | 1008.7 |
| 20260505212708 | 74 | 149 | 1.0 | 3.0 | 0.00 | 0.00 | 0.00 | 47 | 1008.5 |
| 20260505212205 | 75 | 211 | 5.0 | 8.0 | 0.00 | 0.00 | 0.00 | 47 | 1008.6 |
| 20260505211702 | 75 | 121 | 2.0 | 6.0 | 0.00 | 0.00 | 0.00 | 47 | 1008.7 |
| 20260505211159 | 76 | 157 | 7.0 | 9.0 | 0.00 | 0.00 | 0.00 | 46 | 1008.8 |
| 20260505210656 | 77 | 208 | 3.0 | 4.0 | 0.00 | 0.00 | 0.00 | 46 | 1008.9 |
| 20260505210153 | 77 | 283 | 4.0 | 8.0 | 0.00 | 0.00 | 0.00 | 45 | 1009.0 |
| 20260505205650 | 75 | 190 | 4.0 | 6.0 | 0.00 | 0.00 | 0.00 | 47 | 1009.1 |
| 20260505205148 | 74 | 152 | 3.0 | 4.0 | 0.00 | 0.00 | 0.00 | 48 | 1009.0 |
| 20260505204645 | 74 | 182 | 4.0 | 7.0 | 0.00 | 0.00 | 0.00 | 47 | 1009.1 |
| 20260505204143 | 74 | 266 | 1.0 | 7.0 | 0.00 | 0.00 | 0.00 | 48 | 1009.2 |
| 20260505203639 | 74 | 236 | 2.0 | 8.0 | 0.00 | 0.00 | 0.00 | 47 | 1009.5 |
| 20260505203136 | 74 | 268 | 3.0 | 10.0 | 0.00 | 0.00 | 0.00 | 47 | 1009.3 |
| 20260505202631 | 74 | 135 | 5.0 | 9.0 | 0.00 | 0.00 | 0.00 | 46 | 1009.5 |
| 20260505202128 | 74 | 123 | 3.0 | 6.0 | 0.00 | 0.00 | 0.00 | 49 | 1009.6 |
| 20260505201619 | 75 | 268 | 2.0 | 10.0 | 0.00 | 0.00 | 0.00 | 47 | 1009.4 |
| 20260505201116 | 75 | 195 | 9.0 | 11.0 | 0.00 | 0.00 | 0.00 | 45 | 1009.8 |
| 20260505200615 | 75 | 214 | 12.0 | 15.0 | 0.00 | 0.00 | 0.00 | 45 | 1009.6 |
| 20260505200111 | 75 | 220 | 4.0 | 8.0 | 0.00 | 0.00 | 0.00 | 48 | 1009.8 |
| 20260505195602 | 75 | 230 | 5.0 | 9.0 | 0.00 | 0.00 | 0.00 | 47 | 1009.6 |
| 20260505195059 | 74 | 87 | 7.0 | 13.0 | 0.00 | 0.00 | 0.00 | 47 | 1009.8 |
| 20260505194556 | 75 | 151 | 6.0 | 11.0 | 0.00 | 0.00 | 0.00 | 45 | 1009.8 |
| 20260505194052 | 75 | 240 | 5.0 | 8.0 | 0.00 | 0.00 | 0.00 | 47 | 1009.8 |
| 20260505193549 | 75 | 196 | 5.0 | 10.0 | 0.00 | 0.00 | 0.00 | 47 | 1010.1 |
| 20260505193046 | 75 | 295 | 3.0 | 6.0 | 0.00 | 0.00 | 0.00 | 46 | 1010.1 |
| 20260505192545 | 74 | 193 | 6.0 | 16.0 | 0.00 | 0.00 | 0.00 | 46 | 1010.2 |
| 20260505192042 | 75 | 172 | 11.0 | 15.0 | 0.00 | 0.00 | 0.00 | 47 | 1010.3 |
| 20260505191540 | 75 | 125 | 4.0 | 6.0 | 0.00 | 0.00 | 0.00 | 48 | 1010.3 |
| 20260505191038 | 76 | 200 | 1.0 | 15.0 | 0.00 | 0.00 | 0.00 | 47 | 1010.3 |
| 20260505190537 | 75 | 347 | 4.0 | 8.0 | 0.00 | 0.00 | 0.00 | 48 | 1010.5 |
| 20260505190034 | 75 | 16 | 2.0 | 10.0 | 0.00 | 0.00 | 0.00 | 48 | 1010.5 |
| 20260505185531 | 75 | 237 | 4.0 | 15.0 | 0.00 | 0.00 | 0.00 | 49 | 1010.6 |
| 20260505185028 | 75 | 203 | 5.0 | 11.0 | 0.00 | 0.00 | 0.00 | 48 | 1010.8 |
| 20260505184525 | 75 | 170 | 2.0 | 17.0 | 0.00 | 0.00 | 0.00 | 46 | 1010.3 |
| 20260505184022 | 75 | 201 | 9.0 | 17.0 | 0.00 | 0.00 | 0.00 | 47 | 1010.5 |
| 20260505183518 | 75 | 293 | 9.0 | 14.0 | 0.00 | 0.00 | 0.00 | 48 | 1010.5 |
| 20260505183015 | 75 | 147 | 3.0 | 17.0 | 0.00 | 0.00 | 0.00 | 46 | 1010.5 |
| 20260505182506 | 75 | 302 | 3.0 | 9.0 | 0.00 | 0.00 | 0.00 | 48 | 1010.7 |
| 20260505182003 | 75 | 167 | 9.0 | 13.0 | 0.00 | 0.00 | 0.00 | 47 | 1010.2 |
| 20260505181459 | 75 | 257 | 3.0 | 14.0 | 0.00 | 0.00 | 0.00 | 47 | 1010.5 |
| 20260505180956 | 75 | 127 | 3.0 | 11.0 | 0.00 | 0.00 | 0.00 | 50 | 1010.5 |
| 20260505180452 | 75 | 181 | 6.0 | 18.0 | 0.00 | 0.00 | 0.00 | 47 | 1010.5 |
| 20260505175950 | 75 | 207 | 8.0 | 15.0 | 0.00 | 0.00 | 0.00 | 47 | 1010.6 |
| 20260505175445 | 75 | 251 | 8.0 | 15.0 | 0.00 | 0.00 | 0.00 | 46 | 1010.5 |
| 20260505174942 | 75 | 144 | 4.0 | 6.0 | 0.00 | 0.00 | 0.00 | 49 | 1010.5 |
| 20260505174439 | 75 | 203 | 7.0 | 17.0 | 0.00 | 0.00 | 0.00 | 48 | 1010.6 |
| 20260505173935 | 76 | 142 | 6.0 | 9.0 | 0.00 | 0.00 | 0.00 | 49 | 1010.4 |
| 20260505173432 | 75 | 124 | 3.0 | 14.0 | 0.00 | 0.00 | 0.00 | 51 | 1010.5 |
| 20260505172929 | 76 | 234 | 7.0 | 10.0 | 0.00 | 0.00 | 0.00 | 47 | 1010.4 |
| 20260505172428 | 76 | 232 | 10.0 | 16.0 | 0.00 | 0.00 | 0.00 | 48 | 1010.6 |
| 20260505171926 | 76 | 212 | 9.0 | 17.0 | 0.00 | 0.00 | 0.00 | 49 | 1010.4 |
| 20260505171424 | 76 | 202 | 3.0 | 6.0 | 0.00 | 0.00 | 0.00 | 49 | 1010.3 |
| 20260505170920 | 76 | 311 | 2.0 | 8.0 | 0.00 | 0.00 | 0.00 | 49 | 1010.5 |
| 20260505170417 | 75 | 224 | 9.0 | 16.0 | 0.00 | 0.00 | 0.00 | 51 | 1010.4 |
| 20260505165912 | 74 | 172 | 5.0 | 10.0 | 0.00 | 0.00 | 0.00 | 51 | 1010.4 |
| 20260505165409 | 75 | 157 | 6.0 | 14.0 | 0.00 | 0.00 | 0.00 | 49 | 1010.4 |
| 20260505164904 | 75 | 228 | 4.0 | 10.0 | 0.00 | 0.00 | 0.00 | 50 | 1010.4 |
| 20260505164401 | 74 | 209 | 5.0 | 13.0 | 0.00 | 0.00 | 0.00 | 49 | 1010.6 |
| 20260505163859 | 74 | 275 | 3.0 | 10.0 | 0.00 | 0.00 | 0.00 | 50 | 1010.7 |
| 20260505163358 | 74 | 236 | 7.0 | 11.0 | 0.00 | 0.00 | 0.00 | 49 | 1010.8 |
| 20260505162856 | 74 | 227 | 7.0 | 10.0 | 0.00 | 0.00 | 0.00 | 49 | 1010.8 |
| 20260505162351 | 74 | 131 | 9.0 | 11.0 | 0.00 | 0.00 | 0.00 | 50 | 1010.8 |
| 20260505161849 | 74 | 145 | 7.0 | 11.0 | 0.00 | 0.00 | 0.00 | 49 | 1010.8 |
| 20260505161346 | 74 | 142 | 3.0 | 11.0 | 0.00 | 0.00 | 0.00 | 50 | 1011.0 |
| 20260505160843 | 74 | 265 | 6.0 | 10.0 | 0.00 | 0.00 | 0.00 | 49 | 1011.1 |
| 20260505160341 | 74 | 130 | 4.0 | 6.0 | 0.00 | 0.00 | 0.00 | 50 | 1011.2 |
| 20260505153319 | 74 | 170 | 4.0 | 8.0 | 0.00 | 0.00 | 0.00 | 50 | 1011.3 |
| 20260505152816 | 74 | 194 | 8.0 | 13.0 | 0.00 | 0.00 | 0.00 | 49 | 1011.5 |
| 20260505152313 | 74 | 164 | 4.0 | 9.0 | 0.00 | 0.00 | 0.00 | 52 | 1011.6 |
| 20260505151808 | 74 | 174 | 11.0 | 13.0 | 0.00 | 0.00 | 0.00 | 50 | 1011.3 |
| 20260505151305 | 73 | 231 | 3.0 | 9.0 | 0.00 | 0.00 | 0.00 | 52 | 1011.3 |
| 20260505150801 | 73 | 233 | 4.0 | 8.0 | 0.00 | 0.00 | 0.00 | 52 | 1011.3 |
| 20260505150259 | 72 | 164 | 7.0 | 9.0 | 0.00 | 0.00 | 0.00 | 50 | 1011.4 |
| 20260505140223 | 71 | 222 | 3.0 | 6.0 | 0.00 | 0.00 | 0.00 | 53 | 1011.2 |
| 20260505130147 | 68 | 224 | 2.0 | 4.0 | 0.00 | 0.00 | 0.00 | 57 | 1010.9 |
| 20260505124637 | 67 | 183 | 0.0 | 3.0 | 0.00 | 0.00 | 0.00 | 58 | 1010.8 |
| 20260505124133 | 67 | 163 | 4.0 | 6.0 | 0.00 | 0.00 | 0.00 | 58 | 1010.7 |
| 20260505123629 | 67 | 205 | 4.0 | 7.0 | 0.00 | 0.00 | 0.00 | 58 | 1010.6 |
| 20260505123126 | 67 | 110 | 4.0 | 9.0 | 0.00 | 0.00 | 0.00 | 59 | 1010.6 |
| 20260505122622 | 67 | 222 | 2.0 | 7.0 | 0.00 | 0.00 | 0.00 | 60 | 1010.3 |
| 20260505122120 | 67 | 158 | 2.0 | 7.0 | 0.00 | 0.00 | 0.00 | 60 | 1010.4 |
| 20260505121616 | 67 | 180 | 2.0 | 7.0 | 0.00 | 0.00 | 0.00 | 59 | 1010.3 |
| 20260505121113 | 67 | 152 | 1.0 | 4.0 | 0.00 | 0.00 | 0.00 | 62 | 1010.4 |
| 20260505120609 | 67 | 198 | 0.0 | 2.0 | 0.00 | 0.00 | 0.00 | 62 | 1010.3 |
| 20260505120105 | 66 | 67 | 1.0 | 2.0 | 0.00 | 0.00 | 0.00 | 62 | 1010.2 |
| 20260505115600 | 65 | 101 | 0.0 | 2.0 | 0.00 | 0.00 | 0.00 | 63 | 1010.1 |
| 20260505115058 | 66 | 78 | 2.0 | 2.0 | 0.00 | 0.00 | 0.00 | 61 | 1009.9 |
| 20260505114554 | 66 | 142 | 4.0 | 4.0 | 0.00 | 0.00 | 0.00 | 61 | 1009.8 |
| 20260505114050 | 65 | 130 | 1.0 | 6.0 | 0.00 | 0.00 | 0.00 | 61 | 1009.9 |
| 20260505113547 | 65 | 92 | 3.0 | 6.0 | 0.00 | 0.00 | 0.00 | 62 | 1009.7 |
| 20260505113043 | 65 | 188 | 2.0 | 4.0 | 0.00 | 0.00 | 0.00 | 63 | 1009.7 |
| 20260505112540 | 65 | 124 | 2.0 | 3.0 | 0.00 | 0.00 | 0.00 | 62 | 1009.7 |
| 20260505112039 | 65 | 135 | 3.0 | 3.0 | 0.00 | 0.00 | 0.00 | 62 | 1009.5 |
| 20260505111537 | 65 | 132 | 2.0 | 3.0 | 0.00 | 0.00 | 0.00 | 63 | 1009.7 |
| 20260505111034 | 65 | 125 | 2.0 | 4.0 | 0.00 | 0.00 | 0.00 | 61 | 1009.8 |
| 20260505110531 | 65 | 108 | 2.0 | 4.0 | 0.00 | 0.00 | 0.00 | 61 | 1009.7 |
| 20260505102004 | 65 | 204 | 2.0 | 4.0 | 0.00 | 0.00 | 0.00 | 60 | 1009.4 |
| 20260505101501 | 65 | 125 | 3.0 | 8.0 | 0.00 | 0.00 | 0.00 | 60 | 1009.4 |
| 20260505100957 | 65 | 100 | 2.0 | 4.0 | 0.00 | 0.00 | 0.00 | 61 | 1009.2 |
| 20260505100455 | 65 | 96 | 3.0 | 4.0 | 0.00 | 0.00 | 0.00 | 61 | 1009.1 |
| 20260505095951 | 65 | 102 | 3.0 | 3.0 | 0.00 | 0.00 | 0.00 | 62 | 1009.1 |
| 20260505095447 | 65 | 254 | 3.0 | 4.0 | 0.00 | 0.00 | 0.00 | 62 | 1009.1 |
| 20260505094943 | 65 | 76 | 1.0 | 4.0 | 0.00 | 0.00 | 0.00 | 61 | 1009.1 |
| 20260505094440 | 65 | 113 | 1.0 | 3.0 | 0.00 | 0.00 | 0.00 | 61 | 1009.1 |
| 20260505093937 | 65 | 75 | 2.0 | 4.0 | 0.00 | 0.00 | 0.00 | 61 | 1008.8 |
| 20260505093434 | 66 | 85 | 1.0 | 2.0 | 0.00 | 0.00 | 0.00 | 61 | 1008.8 |
| 20260505092931 | 65 | 98 | 2.0 | 7.0 | 0.00 | 0.00 | 0.00 | 61 | 1008.7 |
| 20260505092429 | 65 | 81 | 2.0 | 6.0 | 0.00 | 0.00 | 0.00 | 62 | 1008.6 |
| 20260505091926 | 65 | 102 | 1.0 | 3.0 | 0.00 | 0.00 | 0.00 | 62 | 1008.7 |